This is the latest recevied weather packets stored in our database for station/object WC4PEM-9. If no packets are shown the sender has not sent any weather packets the latest 10 day(s).
| Time | Temp. | Humidity | Pressure | Rain* | Wind** | Luminosity | Snow |
|---|---|---|---|---|---|---|---|
| 1776964447 | 25.56° C | 55% | 1017.7 hPa | 0 mm | - | - | - |
| 1776964147 | 25.56° C | 57% | 1017.4 hPa | 0 mm | - | - | - |
| 1776963847 | 25.56° C | 58% | 1017.6 hPa | 0 mm | - | - | - |
| 1776963731 | 25.56° C | 57% | 1017.6 hPa | 0 mm | - | - | - |
| 1776963547 | 25.56° C | 57% | 1017.6 hPa | 0 mm | - | - | - |
| 1776963247 | 25.56° C | 55% | 1017.7 hPa | 0 mm | - | - | - |
| 1776962947 | 25.56° C | 55% | 1017.8 hPa | 0 mm | - | - | - |
| 1776962808 | 25.56° C | 56% | 1017.7 hPa | 0 mm | - | - | - |
| 1776962647 | 25.56° C | 56% | 1017.7 hPa | 0 mm | - | - | - |
| 1776962527 | 26.11° C | 56% | 1017.9 hPa | 0 mm | - | - | - |
| 1776962347 | 26.11° C | 56% | 1017.9 hPa | 0 mm | - | - | - |
| 1776962226 | 26.11° C | 54% | 1018.1 hPa | 0 mm | - | - | - |
| 1776962047 | 26.11° C | 54% | 1018.1 hPa | 0 mm | - | - | - |
| 1776961964 | 26.11° C | 56% | 1018.1 hPa | 0 mm | - | - | - |
| 1776961747 | 26.11° C | 56% | 1018.1 hPa | 0 mm | - | - | - |
| 1776961587 | 26.11° C | 55% | 1018.2 hPa | 0 mm | - | - | - |
| 1776961447 | 26.11° C | 55% | 1018.2 hPa | 0 mm | - | - | - |
| 1776961263 | 26.11° C | 55% | 1018.2 hPa | 0 mm | - | - | - |
| 1776961147 | 26.11° C | 55% | 1018.2 hPa | 0 mm | - | - | - |
| 1776960995 | 25.56° C | 54% | 1018.3 hPa | 0 mm | - | - | - |
| 1776960847 | 25.56° C | 54% | 1018.3 hPa | 0 mm | - | - | - |
| 1776960547 | 25.56° C | 56% | 1018.5 hPa | 0 mm | - | - | - |
| 1776960247 | 25° C | 59% | 1018.5 hPa | 0 mm | - | - | - |
| 1776960097 | 25° C | 59% | 1018.7 hPa | 0 mm | - | - | - |
| 1776959947 | 25° C | 59% | 1018.7 hPa | 0 mm | - | - | - |
* Rain latest hour (hover to see other rain measurements)
** Current wind speed in m/s (hover to see current wind gust speed)